Location: Archemont
(49.1579°N, 1.7598°E)
Time: 10:40:56
(UTC+00:00)

deb Explorer IX - Pass Details

Date: 18 April 2024
Orbit: 513 x 891 km, 38.7° (Epoch: 23 May)

Event Time Altitude Azimuth Distance (km) Brightness Sun altitude
Rises 12:25:56 0° 232° (SW) 3,470 ? 51.3°
Reaches altitude 10° 12:28:52 10° 220° (SW) 2,559 ? 51.2°
Maximum altitude 12:33:53 26° 166° (SSE) 1,683 ? 51.0°
Drops below altitude 10° 12:38:54 10° 111° (ESE) 2,558 ? 50.7°
Sets 12:41:49 0° 100° (E) 3,468 ? 50.6°
